Regional Weather Roundup
Issued by NWS Newport/Morehead, NC

Current Version | Previous Version | Graphics & Text | Print | Product List | Glossary On
Versions: 1 2 3 4 5 6 7 8 9 10 11 12 13 14 15 16 17 18 19 20 21 22 23 24 25 26 27 28 29 30 31 32 33 34 35 36 37 38 39 40 41 42 43 44 45 46 47 48 49 50
000 ASUS42 KMHX 222025 RWRMHX WEATHER ROUNDUP FOR EASTERN NORTH CAROLINA NATIONAL WEATHER SERVICE NEWPORT/MOREHEAD CITY NC 400 PM EDT FRI JUL 22 2016 NOTE: "FAIR" INDICATES FEW OR NO CLOUDS BELOW 12,000 FEET WITH NO SIGNIFICANT WEATHER AND/OR OBSTRUCTIONS TO VISIBILITY NCZ015>017-031-032-045>047-102-103-222100- NORTH COAST CITY SKY/WX TMP DP RH WIND PRES REMARKS EDENTON MOSUNNY 92 68 46 SW10 30.02F ELIZABETH CITY MOSUNNY 88 70 55 S10 30.02F KITTY HAWK PTCLDY 91 70 49 S7G16 30.02F MANTEO N/A 86 73 65 S17 30.04F $$ NCZ045>047-081-094-103-104-222100- CENTRAL COAST CITY SKY/WX TMP DP RH WIND PRES REMARKS FRISCO SUNNY 86 68 54 S9 30.06F $$ NCZ095-097-098-100-101-222100- SOUTHERN COAST CITY SKY/WX TMP DP RH WIND PRES REMARKS BEAUFORT SUNNY 86 73 65 S10 30.06F CEDAR ISLAND NOT AVBL JACKSONVILLE PTSUNNY 89 70 53 S13 30.05F PINEY ISLAND CLEAR N/A N/A N/A S9 30.06F WILMINGTON SUNNY 88 69 53 SE8 30.06F $$ NCZ011>013-027>030-043-044-078>080-089-090>093-098-222100- COASTAL PLAIN CITY SKY/WX TMP DP RH WIND PRES REMARKS AHOSKIE MOSUNNY 88 76 67 CALM 30.02F CLINTON SUNNY 92 73 54 S6 30.04F HX 100 ELIZABETHTOWN SUNNY 92 70 49 SW7 30.05F GOLDSBORO MOSUNNY 92 71 50 SW14 30.02F GREENVILLE MOSUNNY 91 73 55 SW10G16 30.04F HX 100 HAVELOCK MOSUNNY 88 69 53 SW13 30.07F KENANSVILLE MOSUNNY 90 68 48 SE5 30.04F KINSTON MOSUNNY 91 70 49 S9 30.04F NEW BERN PTSUNNY 91 71 51 S7 30.06F RICHLANDS MOSUNNY 90 72 55 S12 30.05F ROCKY MOUNT SUNNY 91 75 59 S10 30.03F HX 101 WASHINGTON MOSUNNY 89 71 55 SW8 30.04S WHITEVILLE MOSUNNY 90 73 57 S7 30.06S $$ AMZ130-135-150-152-154-156-158-170-250-252-270-ANZ085-086-088-633-658-670-222100- MARINE OBSERVATIONS STATION/POSITION TIME TEMP WIND PRES WAVE SWELL AIR SEA DIR/SP/G HT/PER HT/PER (UTC) (F) (DEG/KT/KT) (MB) (FT/S) (FT/S) CHESAPEAKE LIGHT NOT AVBL 64 E VA BEACH 1950 81 82 190/ 16/ 17 1016.7 3/ 8 2/ 8 DUCK 2000 86 80 180/ 13/ 15 1015.9 2 E DUCK 1911 82 N/A 2/ 9 OREGON INLET 2000 84 83 180/ 14/ 16 1017.4 13E OREGON INLT 2000 83 N/A 2/ 8 2/ 8 HATTERAS CG 2000 85 83 170/ 8/ 11 1017.5 DIAMOND BUOY 1950 83 86 190/ 6/ 8 1018.2 2/ 9 2/ 9 CAPE LOOKOUT 2000 84 160/ 8/ 9 1017.7 BEAUFORT LAB 2000 84 84 190/ 9/ 11 1017.3 30 SE NEW RVR IN 2008 85 86 170/ 6/ 8 1018.2 30 SE NEW RVR IN 1925 86 N/A 3/ 9 27 SE WRIGHTSVLE 2008 84 86 210/ 4/ 6 1018.5 5 SE WRIGHTSVLE NOT AVBL 225 S CAPE HAT 1950 83 88 70/ 2/ 4 1018.2 3/ 8 3/ 8 41 SE CHARLESTON 1950 86 88 CALM / 2 1018.2 3/ 9 3/ 9 $$

USA.gov is the U.S. government's official web portal to all federal, state and local government web resources and services.